This is the latest recevied weather packets stored in our database for station/object K8JCL-13. If no packets are shown the sender has not sent any weather packets the latest 10 day(s).
| Time | Temp. | Humidity | Pressure | Rain* | Wind** | Luminosity | Snow |
|---|---|---|---|---|---|---|---|
| 1777669108 | 10° C | 70% | 1015.3 hPa | 0 mm | - | 153 W/m² | - |
| 1777668805 | 10° C | 72% | 1015.8 hPa | 0 mm | - | 163 W/m² | - |
| 1777668496 | 10° C | 70% | 1015.6 hPa | 0 mm | - | 131 W/m² | - |
| 1777667889 | 10.56° C | 67% | 1015.4 hPa | 0 mm | - | 156 W/m² | - |
| 1777667587 | 10° C | 70% | 1015.5 hPa | 0 mm | - | 150 W/m² | - |
| 1777667284 | 9.44° C | 72% | 1015.5 hPa | 0 mm | - | 120 W/m² | - |
| 1777666980 | 9.44° C | 75% | 1015.7 hPa | 0 mm | - | 71 W/m² | - |
| 1777666070 | 9.44° C | 73% | 1015.6 hPa | 0 mm | - | 112 W/m² | - |
| 1777665768 | 10° C | 71% | 1015.5 hPa | 0 mm | - | 133 W/m² | - |
| 1777665161 | 9.44° C | 75% | 1015.5 hPa | 0 mm | - | 221 W/m² | - |
| 1777664250 | 9.44° C | 76% | 1015.6 hPa | 0 mm | - | 104 W/m² | - |
| 1777663645 | 9.44° C | 74% | 1015.5 hPa | 0 mm | - | 167 W/m² | - |
| 1777663342 | 10° C | 72% | 1015.5 hPa | 0 mm | - | 173 W/m² | - |
| 1777662737 | 8.89° C | 78% | 1015.6 hPa | 0 mm | - | 206 W/m² | - |
| 1777662433 | 8.89° C | 77% | 1015.6 hPa | 0 mm | - | 132 W/m² | - |
| 1777661824 | 8.89° C | 77% | 1015.4 hPa | 0 mm | - | 269 W/m² | - |
| 1777661520 | 8.89° C | 77% | 1015.4 hPa | 0 mm | - | 216 W/m² | - |
| 1777661210 | 8.89° C | 77% | 1015.5 hPa | 0 mm | - | 207 W/m² | - |
| 1777660905 | 8.89° C | 77% | 1015.1 hPa | 0 mm | - | 208 W/m² | - |
| 1777660602 | 10° C | 76% | 1015.3 hPa | 0 mm | - | 168 W/m² | - |
| 1777660298 | 10° C | 75% | 1015.2 hPa | 0 mm | - | 489 W/m² | - |
| 1777659995 | 10.56° C | 78% | 1015.1 hPa | 0 mm | - | 760 W/m² | - |
| 1777659692 | 10° C | 78% | 1014.8 hPa | 0 mm | - | 702 W/m² | - |
| 1777659389 | 10° C | 79% | 1014.9 hPa | 0 mm | - | 844 W/m² | - |
| 1777659086 | 10.56° C | 77% | 1014.9 hPa | 0 mm | - | 326 W/m² | - |
* Rain latest hour (hover to see other rain measurements)
** Current wind speed in m/s (hover to see current wind gust speed)